Heubes-Wetterstation in 44289 Dortmund
Heubes-Wetterstation

Messwerte der letzten 60 Minuten im Minuten-Intervall (Wetterstation 44289 Dortmund)

Datum & Uhrzeit Temp. Feucht. Wind-Ø Böen Sekt.  Regen Rate Luftdruck
26.10.2020 - 10:5310.8 °C85%3 km/h 21 km/h SW0.0 mm 0.0 mm 1001.8 hPa, gleichbleibend
26.10.2020 - 10:5210.8 °C85%3 km/h 13 km/h S-SW0.0 mm 0.0 mm 1001.8 hPa, gleichbleibend
26.10.2020 - 10:5110.8 °C85%4 km/h 14 km/h S-SW0.0 mm 0.0 mm 1001.8 hPa, gleichbleibend
26.10.2020 - 10:5010.8 °C85%5 km/h 10 km/h SW0.0 mm 0.0 mm 1001.8 hPa, langsam fallend
26.10.2020 - 10:4910.8 °C85%5 km/h 5 km/h SW0.0 mm 0.0 mm 1001.9 hPa, langsam fallend
26.10.2020 - 10:4810.8 °C85%5 km/h 0 km/h S-SW0.0 mm 0.0 mm 1002.0 hPa, gleichbleibend
26.10.2020 - 10:4710.8 °C85%5 km/h 8 km/h SW0.0 mm 0.0 mm 1002.0 hPa, gleichbleibend
26.10.2020 - 10:4610.8 °C85%5 km/h 10 km/h W-SW0.0 mm 0.0 mm 1002.0 hPa, gleichbleibend
26.10.2020 - 10:4510.8 °C85%6 km/h 7 km/h SW0.0 mm 0.0 mm 1002.0 hPa, langsam steigend
26.10.2020 - 10:4410.8 °C85%7 km/h 10 km/h SW0.0 mm 0.0 mm 1001.9 hPa, gleichbleibend
26.10.2020 - 10:4310.8 °C85%7 km/h 8 km/h W-SW0.0 mm 0.0 mm 1001.9 hPa, gleichbleibend
26.10.2020 - 10:4210.8 °C85%7 km/h 14 km/h SW0.0 mm 0.0 mm 1001.9 hPa, gleichbleibend
26.10.2020 - 10:4110.8 °C85%7 km/h 18 km/h W-SW0.0 mm 0.0 mm 1001.9 hPa, gleichbleibend
26.10.2020 - 10:4010.8 °C85%8 km/h 13 km/h W-SW0.0 mm 0.0 mm 1001.9 hPa, gleichbleibend
26.10.2020 - 10:3910.8 °C85%8 km/h 11 km/h W-SW0.0 mm 0.0 mm 1001.9 hPa, langsam steigend
26.10.2020 - 10:3810.8 °C85.5%9 km/h 11 km/h S-SW0.0 mm 0.0 mm 1001.8 hPa, gleichbleibend
26.10.2020 - 10:3710.8 °C86%10 km/h 11 km/h SW0.0 mm 0.0 mm 1001.8 hPa, gleichbleibend
26.10.2020 - 10:3610.8 °C86%10 km/h 8 km/h S-SW0.0 mm 0.0 mm 1001.8 hPa, gleichbleibend
26.10.2020 - 10:3510.8 °C86%10 km/h 11 km/h SW0.0 mm 0.0 mm 1001.8 hPa, gleichbleibend
26.10.2020 - 10:3410.8 °C86%8 km/h 18 km/h SW0.0 mm 0.0 mm 1001.8 hPa, gleichbleibend
26.10.2020 - 10:3310.7 °C86%8 km/h 10 km/h SW0.0 mm 0.0 mm 1001.8 hPa, gleichbleibend
26.10.2020 - 10:3210.7 °C86%8 km/h 16 km/h W-SW0.0 mm 0.0 mm 1001.8 hPa, gleichbleibend
26.10.2020 - 10:3110.7 °C86%8 km/h 21 km/h S-SW0.0 mm 0.0 mm 1001.8 hPa, gleichbleibend
26.10.2020 - 10:3010.7 °C86%9 km/h 19 km/h S0.0 mm 0.0 mm 1001.8 hPa, gleichbleibend
26.10.2020 - 10:2910.7 °C86%10 km/h 18 km/h SW0.0 mm 0.0 mm 1001.8 hPa, gleichbleibend
26.10.2020 - 10:2810.7 °C87%8 km/h 27 km/h W-SW0.0 mm 0.0 mm 1001.8 hPa, gleichbleibend
26.10.2020 - 10:2710.7 °C87%8 km/h 16 km/h SW0.0 mm 0.0 mm 1001.7 hPa, gleichbleibend
26.10.2020 - 10:2610.7 °C87%10 km/h 18 km/h SW0.0 mm 0.0 mm 1001.7 hPa, gleichbleibend
26.10.2020 - 10:2510.7 °C87%10 km/h 10 km/h SW0.0 mm 0.0 mm 1001.7 hPa, gleichbleibend
26.10.2020 - 10:2410.7 °C87%10 km/h 8 km/h SW0.0 mm 0.0 mm 1001.7 hPa, gleichbleibend
26.10.2020 - 10:2310.7 °C87%10 km/h 14 km/h SW0.0 mm 0.0 mm 1001.7 hPa, gleichbleibend
26.10.2020 - 10:2210.7 °C87.5%10 km/h 21 km/h SW0.0 mm 0.0 mm 1001.7 hPa, gleichbleibend
26.10.2020 - 10:2110.8 °C88%8 km/h 29 km/h S-SW0.0 mm 0.0 mm 1001.7 hPa, langsam steigend
26.10.2020 - 10:2010.8 °C88%8 km/h 27 km/h S-SW0.0 mm 0.0 mm 1001.6 hPa, gleichbleibend
26.10.2020 - 10:1910.8 °C89%8 km/h 21 km/h SW0.0 mm 0.0 mm 1001.6 hPa, langsam fallend
26.10.2020 - 10:1810.8 °C89%8 km/h 18 km/h SW0.0 mm 0.0 mm 1001.7 hPa, gleichbleibend
26.10.2020 - 10:1710.8 °C89%8 km/h 23 km/h W-SW0.0 mm 0.0 mm 1001.8 hPa, gleichbleibend
26.10.2020 - 10:1610.8 °C89%8 km/h 16 km/h S-SW0.0 mm 0.0 mm 1001.8 hPa, gleichbleibend
26.10.2020 - 10:1510.8 °C89%8 km/h 14 km/h SW0.0 mm 0.0 mm 1001.8 hPa, gleichbleibend
26.10.2020 - 10:1410.8 °C89%8 km/h 13 km/h W-SW0.0 mm 0.0 mm 1001.8 hPa, langsam steigend
26.10.2020 - 10:1310.7 °C89%8 km/h 11 km/h S-SW0.0 mm 0.0 mm 1001.6 hPa, gleichbleibend
26.10.2020 - 10:1210.7 °C90%8 km/h 19 km/h SW0.0 mm 0.0 mm 1001.6 hPa, gleichbleibend
26.10.2020 - 10:1110.7 °C90%8 km/h 11 km/h SW0.0 mm 0.0 mm 1001.6 hPa, gleichbleibend
26.10.2020 - 10:1010.7 °C90%8 km/h 18 km/h S-SW0.0 mm 0.0 mm 1001.6 hPa, gleichbleibend
26.10.2020 - 10:0910.7 °C90%7 km/h 19 km/h SW0.0 mm 0.0 mm 1001.6 hPa, gleichbleibend
26.10.2020 - 10:0810.7 °C90%7 km/h 14 km/h SW0.0 mm 0.0 mm 1001.6 hPa, langsam fallend
26.10.2020 - 10:0710.7 °C90%5 km/h 21 km/h SW0.0 mm 0.0 mm 1001.7 hPa, gleichbleibend
26.10.2020 - 10:0610.7 °C90.5%5 km/h 10 km/h SW0.0 mm 0.0 mm 1001.8 hPa, gleichbleibend
26.10.2020 - 10:0510.7 °C91%5 km/h 10 km/h S-SW0.0 mm 0.0 mm 1001.8 hPa, gleichbleibend
26.10.2020 - 10:0410.6 °C91%5 km/h 10 km/h W0.0 mm 0.0 mm 1001.7 hPa, langsam steigend
26.10.2020 - 10:0310.6 °C91%3 km/h 18 km/h S-SW0.0 mm 0.0 mm 1001.6 hPa, gleichbleibend
26.10.2020 - 10:0210.6 °C91%3 km/h 7 km/h SW0.0 mm 0.0 mm 1001.6 hPa, gleichbleibend
26.10.2020 - 10:0110.6 °C91%2 km/h 13 km/h S-SW0.0 mm 0.0 mm 1001.6 hPa, gleichbleibend
26.10.2020 - 10:0010.6 °C91%1 km/h 11 km/h S-SW0.0 mm 0.0 mm 1001.6 hPa, gleichbleibend
26.10.2020 - 09:5910.6 °C91%1 km/h 3 km/h SW0.0 mm 0.0 mm 1001.6 hPa, gleichbleibend
26.10.2020 - 09:5810.6 °C91%1 km/h 13 km/h S-SW0.0 mm 0.0 mm 1001.6 hPa, langsam fallend
26.10.2020 - 09:5710.6 °C91%0 km/h 13 km/h S-SW0.0 mm 0.0 mm 1001.7 hPa, gleichbleibend
26.10.2020 - 09:5610.6 °C91%0 km/h 7 km/h W-SW0.0 mm 0.0 mm 1001.7 hPa, langsam steigend
26.10.2020 - 09:5510.5 °C91%0 km/h 5 km/h SW0.0 mm 0.0 mm 1001.6 hPa, langsam steigend
26.10.2020 - 09:5410.5 °C91%1 km/h 3 km/h W-SW0.0 mm 0.0 mm 1001.5 hPa, gleichbleibend